Regional Weather Roundup
Issued by NWS

Home | Current Version | Previous Version | Text Only | Print | Product List | Glossary On
Versions: 1 2 3 4 5 6 7 8 9 10 11 12 13 14 15 16 17 18 19 20 21 22 23 24 25 26 27 28 29 30 31 32 33 34 35 36 37 38 39 40 41 42 43 44 45 46 47 48 49 50
000
ASUS43 KDTX 190301
RWRMI
MICHIGAN HOURLY REGIONAL WEATHER ROUNDUP
NATIONAL WEATHER SERVICE DETROIT/PONTIAC MI
1100 PM EDT WED OCT 18 2017

NOTE: "FAIR" INDICATES FEW OR NO CLOUDS BELOW 12,000 FEET WITH NO
SIGNIFICANT WEATHER AND/OR OBSTRUCTION TO VISIBILITY.

MIZ047>049-052>055-059>063-066>070-074>076-081>083-190400-
SOUTHEAST LOWER MICHIGAN

CITY           SKY/WX    TMP DP  RH WIND       PRES   REMARKS
ADRIAN         CLEAR     53  41  63 SW6       30.13R
ALMA           CLOUDY    55  38  53 SW8       30.05R
ANN ARBOR      CLEAR     51  41  68 S6        30.11R
BAD AXE        CLEAR     55  39  55 S9        30.04S
CARO           CLEAR     57  39  52 SW10      30.04S
DETROIT CITY   CLEAR     62  42  47 SW15      30.10S
DETROIT        CLEAR     56  42  59 S9        30.12R
FLINT          CLEAR     58  40  51 SW9       30.07S
GROSSE ILE     CLEAR     61  45  55 SW12      30.10S
HILLSDALE      CLEAR     55  37  50 S9        30.11S
HOWELL         CLEAR     56  40  55 SW7       30.08S

CITY           SKY/WX    TMP DP  RH WIND       PRES   REMARKS
JACKSON        CLEAR     59  40  49 S10       30.10R
LAMBERTVILLE   CLEAR     60  40  48 S9        30.12S
LANSING        CLEAR     58  38  47 SW13      30.07S
LAPEER         FAIR      57  40  52 SW9       30.07S
MASON          CLEAR     57  40  52 CALM      30.08S
MONROE         CLEAR     58  39  49 S8        30.11S
MT. CLEMENS    CLEAR     54  43  66 S8        30.07F
PONTIAC        CLEAR     58  41  53 SW9       30.09R
PORT HOPE        N/A     59  40  49 SW8G16    30.00S
PORT HURON     CLEAR     54  45  71 S5        30.09S
TRI CITIES     PTCLDY    59  41  51 S12       30.04S
MIDLAND        FAIR      56  40  54 S7        30.02S
TROY           CLEAR     60  39  46 S9        30.11S
SAGINAW HB     CLEAR     57  41  54 S15       30.03S
$$
MIZ043>046-050>051-056>058-064>065-071>073-077>080-190400-
SOUTHWEST LOWER MICHIGAN

CITY           SKY/WX    TMP DP  RH WIND       PRES   REMARKS
BATTLE CREEK   CLEAR     56  42  59 S12       30.09S
BENTON HARBOR  CLEAR     59  41  51 S8G18     30.07R
BIG RAPIDS     CLOUDY    57  38  47 S8        29.99F
COLDWATER      CLEAR     57  39  51 SW8       30.11R
FREMONT        FAIR      58  43  58 S8        30.00S
HOLLAND        CLEAR     60  42  51 S13G23    30.05R
GRAND RAPIDS   PTCLDY    59  42  53 S13       30.05R
IONIA          FAIR      57  41  54 S10       30.05R
KALAMAZOO      CLEAR     55  41  59 S12       30.09S
LUDINGTON      CLEAR     62  49  62 SW21G30   29.95S
MARSHALL       CLEAR     57  39  52 S7        30.09S
MOUNT PLEASANT CLEAR     60  39  45 SW9       30.01S
MUSKEGON       PTCLDY    62  49  62 S15G25    30.02S
SOUTH HAVEN    CLEAR     61  41  48 SW12G17   30.06R
$$
MIZ016>042-190400-
NORTHERN LOWER MICHIGAN

CITY           SKY/WX    TMP DP  RH WIND       PRES   REMARKS
ALPENA         CLEAR     61  40  45 SW15G25   29.91F
BEAVER ISLAND  CLEAR     63  50  63 SW16G30   29.80S
BELLAIRE       PTCLDY    62  40  44 SW8G17    29.89S
CADILLAC       CLOUDY    60  38  44 SW14G23   29.95F
CHARLEVOIX     CLOUDY    61  44  53 S17G24    29.87F
FRANKFORT      CLEAR     65  50  60 S17G30    29.90S
GAYLORD        CLOUDY    59  37  44 SW22G32   29.90F
GRAYLING       CLOUDY    58  38  48 SW10G18   29.94F
HARBOR SPRINGS CLOUDY    62  41  46 SW17G29   29.84F
HOUGHTON LAKE  CLEAR     58  39  49 SW10G18   29.96F
MANISTEE       CLEAR     63  47  55 SW14G20   29.93S
OSCODA         CLOUDY    59  38  46 SW16G25   29.97S
PELLSTON       CLOUDY    62  42  47 SW21G39   29.83F
ROGERS CITY    CLOUDY    61  40  46 SW20G31   29.86F
TRAVERSE CITY  PTCLDY    63  41  44 SW12G20   29.88F
$$
MIZ007>008-015-190400-
EASTERN UPPER MICHIGAN

CITY           SKY/WX    TMP DP  RH WIND       PRES   REMARKS
KINROSS        CLOUDY    61  44  53 SW13G22   29.80F
MACKINAC ISLAN CLOUDY    63  41  44 SW14G30   29.82S
NEWBERRY       CLEAR     59  52  77 SW18G29   29.76S
S. S. MARIE    CLOUDY    62  44  51 SW21G28   29.77F
MUNISING         N/A     61  51  70 SW8       29.74R
$$
MIZ004>006-011>014-085-190400-
CENTRAL UPPER MICHIGAN

CITY           SKY/WX    TMP DP  RH WIND       PRES   REMARKS
MANISTIQUE     PTCLDY    58  52  80 SW13G24   29.78R
ESCANABA       CLEAR     58  52  80 S7        29.78R
MENOMINEE      CLEAR     65  47  52 SW14      29.82R
SAWYER-GWINN   CLEAR     58  46  65 SW9       29.76S
$$
MIZ001>003-009>011-084-190400-
WESTERN UPPER MICHIGAN

CITY           SKY/WX    TMP DP  RH WIND       PRES   REMARKS
IRON MOUNTAIN  CLEAR     63  45  51 SW8       29.78R
HOUGHTON       CLEAR     55  32  41 W18G26    29.74R
COPPER HARBOR    N/A     58  28  32 NW13G29   29.71R
IRONWOOD       CLEAR     54  21  27 W15       29.83R
$$

ABBREVIATIONS USED IN REMARKS
   TC - TEMPERATURE IN CELSIUS
  WCI - WIND CHILL INDEX
   HX - HEAT INDEX
  VSB - VISIBILITY





USA.gov is the U.S. government's official web portal to all federal, state and local government web resources and services.